Regional Weather Roundup
Issued by NWS

Home | Current Version | Previous Version | Text Only | Print | Product List | Glossary On
Versions: 1 2 3 4 5 6 7 8 9 10 11 12 13 14 15 16 17 18 19 20 21 22 23 24 25 26 27 28 29 30 31 32 33 34 35 36 37 38 39 40 41 42 43 44 45 46 47 48 49 50
000
ASUS45 KREV 060510
RWRNV
NEVADA REGIONAL WEATHER ROUNDUP
NATIONAL WEATHER SERVICE RENO NV
1000 PM PDT SUN JUL 05 2015

NOTE: "FAIR" INDICATES FEW OR NO CLOUDS BELOW 12,000 FEET WITH NO
SIGNIFICANT WEATHER AND/OR OBSTRUCTIONS TO VISIBILITY.

NVZ001-003-004-060600-
WESTERN NEVADA

CITY           SKY/WX    TMP DP  RH WIND       PRES   REMARKS
RENO           MOCLDY    77  52  41 N5        30.10R
CARSON CITY    FAIR      75  45  33 S3        30.11R
MINDEN         FAIR      66  45  45 SE6       30.12R
SLIDE MTN        N/A     57  41  54 CALM        N/A
PYRAMID LAKE     N/A     79 N/A N/A SE6         N/A
FALLON         CLOUDY    76  46  34 N10       30.06R
LOVELOCK       TSTM      63  58  83 NW7       30.16S
HAWTHORNE      CLEAR     72  52  49 CALM      30.08S
$$

NVZ002-CAZ072-073-060600-
NORTHERN AND CENTRAL SIERRA

CITY           SKY/WX    TMP DP  RH WIND       PRES   REMARKS
S. LAKE TAHOE  CLEAR     64  50  60 CALM      30.23R
TRUCKEE        CLEAR     57  50  77 CALM      30.22R
SQUAW VLY 8000 NOT AVBL
SUSANVILLE     CLEAR     75  43  31 W6        30.10R
BLUE CANYON    CLEAR     69  50  50 N3        30.18R
MAMMOTH LAKES  FAIR      59  43  55 W6        30.32R
BRIDGEPORT     FAIR      64  39  39 N9        30.26R
$$

NVZ030-031-036-060600-
NORTHERN NEVADA

CITY           SKY/WX    TMP DP  RH WIND       PRES   REMARKS
ELKO           CLEAR     69  42  37 SW10      30.14R
WINNEMUCCA     MOCLDY    64  48  56 SW6       30.14R
WENDOVER       CLEAR     79  52  38 N10       30.04R
$$

NVZ035-037-060600-
CENTRAL NEVADA

CITY           SKY/WX    TMP DP  RH WIND       PRES   REMARKS
ELY            PTCLDY    71  30  21 CALM      30.19R
EUREKA           N/A     65  39  38 SW3       30.18R
$$

NVZ013-014-060600-
SOUTH CENTRAL NEVADA

CITY           SKY/WX    TMP DP  RH WIND       PRES   REMARKS
TONOPAH        CLOUDY    75  36  24 NE8       30.17R
$$

NVZ017-020-022-060600-
SOUTHERN NEVADA

CITY           SKY/WX    TMP DP  RH WIND       PRES   REMARKS
LAS VEGAS      CLOUDY    91  50  24 N15G22    29.90R
N. LAS VEGAS   CLOUDY    86  53  32 N23G35    29.92R
NELLIS AFB     CLOUDY    91  52  26 NW16G26   29.90R
HENDERSON      CLOUDY    88  52  29 S12       29.95R
MERCURY        LGT RAIN  71  65  81 NE6       30.10R
$$


USA.gov is the U.S. government's official web portal to all federal, state and local government web resources and services.